DRAGON CRS-10

Last updated on Mon Mar 20 2017 00:15:03 GMT+0000 (Coordinated Universal Time)

1 42053U 17009A 17077.58008207 .00001743 00000-0 33487-4 0 9997 2 42053 51.6421 129.9559 0006873 308.4095 172.2983 15.54222926 47661
UTC large
Height (km)
Speed (km/s)
/
Latitude / Longitude
Inclination (degrees)
Orbital Period (minutes)
Azimuth
Elevation
Range (km)
Doppler Factor

Next 0 passes for location: London (51.5072 / 0.1276)

Sorry there are no passes over London.